Regional Weather Roundup
Issued by NWS Charleston, WV

Home | Current Version | Previous Version | Text Only | Print | Product List | Glossary Off
Versions: 1 2 3 4 5 6 7 8 9 10 11 12 13 14 15 16 17 18 19 20 21 22 23 24 25 26 27 28 29 30 31 32 33 34 35 36 37 38 39 40 41 42 43 44 45 46 47 48 49 50

000
ASUS41 KRLX 310910
RWRRLX
West Virginia Regional Weather Roundup
National Weather Service Charleston WV
500 AM EDT MON AUG 31 2015

Note: "fair" indicates few or no clouds below 12,000 feet with no
significant weather and/or obstructions to visibility.

WVZ003-311000-
Northern Panhandle of West Virginia

CITY           SKY/WX    TMP DP  RH WIND       PRES   REMARKS
WHEELING       MOCLDY    66  64  93 S7        30.09S FOG
$$

WVZ009-311000-
Northwest West Virginia

CITY           SKY/WX    TMP DP  RH WIND       PRES   REMARKS
PARKERSBURG    MOCLDY    68  66  93 CALM      30.11S
$$

WVZ006-311000-
Western West Virginia

CITY           SKY/WX    TMP DP  RH WIND       PRES   REMARKS
HUNTINGTON     MOCLDY    66  66 100 CALM      30.08F
$$

WVZ015-311000-
West Central West Virginia

CITY           SKY/WX    TMP DP  RH WIND       PRES   REMARKS
CHARLESTON     CLOUDY    67  66  97 SE5       30.10R FOG
$$

WVZ022-031-311000-
North Central West Virginia

CITY           SKY/WX    TMP DP  RH WIND       PRES   REMARKS
CLARKSBURG     CLOUDY    67  66  97 CALM      30.11S
MORGANTOWN     CLOUDY    71  66  84 CALM      30.12S
$$

WVZ025-035-042-045-311000-
Southern West Virginia

CITY           SKY/WX    TMP DP  RH WIND       PRES   REMARKS
BECKLEY        CLOUDY    65  59  81 CALM      30.17S
LOGAN          CLOUDY    66  66 100 CALM      30.12S
BLUEFIELD      CLOUDY    65  59  81 E3        30.19S
LEWISBURG      CLOUDY    66  64  93 CALM      30.18R FOG
$$

WVZ047-311000-
Northern Mountains of West Virginia

CITY           SKY/WX    TMP DP  RH WIND       PRES   REMARKS
ELKINS         CLOUDY    64  61  90 CALM      30.17S
$$

WVZ052-311000-
Eastern Panhandle of West Virginia

CITY           SKY/WX    TMP DP  RH WIND       PRES   REMARKS
MARTINSBURG    CLOUDY    70  64  81 CALM      30.08S
PETERSBURG     CLOUDY    67  66  99 CALM      30.12S FOG
$$


USA.gov is the U.S. government's official web portal to all federal, state and local government web resources and services.